Regional Weather Roundup
Issued by NWS

Home | Current Version | Previous Version | Graphics & Text | Print | Product List | Glossary On
Versions: 1 2 3 4 5 6 7 8 9 10 11 12 13 14 15 16 17 18 19 20 21 22 23 24 25 26 27 28 29 30 31 32 33 34 35 36 37 38 39 40 41 42 43 44 45 46 47 48 49 50
000
ASUS43 KMKX 270021
RWRWI

WISCONSIN REGIONAL WEATHER ROUNDUP
NATIONAL WEATHER SERVICE MILWAUKEE/SULLIVAN WI
700 PM CDT TUE JUL 26 2016

NOTE: "FAIR" INDICATES FEW OR NO CLOUDS BELOW 12,000 FEET WITH NO
SIGNIFICANT WEATHER AND/OR OBSTRUCTIONS TO VISIBILITY.

WIZ001-002-006>008-014>016-023>028-270100-
NORTHWEST WISCONSIN

CITY           SKY/WX    TMP DP  RH WIND       PRES   REMARKS
SUPERIOR ARPT  CLOUDY    80  71  73 W7        29.93F HX  83
6HR MIN TEMP:  80; 6HR MAX TEMP:  85;

ASHLAND        MOSUNNY   82  69  64 NW5       29.93F HX  85
6HR MIN TEMP:  82; 6HR MAX TEMP:  89;

HAYWARD        SUNNY     83  69  62 CALM      29.96F HX  86
6HR MIN TEMP:  83; 6HR MAX TEMP:  86;

SIREN          NOT AVBL
CUMBERLAND     SUNNY     81  64  57 W5        29.97F HX  82
RICE LAKE      SUNNY     82  67  59 SW5       29.98F HX  85
6HR MIN TEMP:  81; 6HR MAX TEMP:  87;

CHETEK         SUNNY     83  69  61 SW5       29.96F HX  86
6HR MIN TEMP:  83; 6HR MAX TEMP:  88;

LADYSMITH      SUNNY     84  67  56 SW7       29.99F HX  86
6HR MIN TEMP:  83; 6HR MAX TEMP:  88;

EAU CLAIRE     SUNNY     86  65  49 W9        29.96F HX  88
6HR MIN TEMP:  86; 6HR MAX TEMP:  90;

MENOMONIE      SUNNY     87  65  47 SW8       29.97F HX  89
6HR MIN TEMP:  87; 6HR MAX TEMP:  91;

NEW RICHMOND   SUNNY     83  63  49 SW9       29.97S HX  84
OSCEOLA        SUNNY     83  67  57 W6        29.98F HX  86
6HR MIN TEMP:  83; 6HR MAX TEMP:  90;

$$

WIZ003>005-009-010-017-018-270100-
NORTH CENTRAL WISCONSIN

CITY           SKY/WX    TMP DP  RH WIND       PRES   REMARKS
MANITOWISH WTR TSTM      73  64  73 N5        29.97R
6HR MIN TEMP:  73; 6HR MAX TEMP:  86;

ARBOR VITAE      N/A     83  66  56 W9        29.98R HX  85
6HR MIN TEMP:  83; 6HR MAX TEMP:  86;

WOODRUFF         N/A     83  66  56 W9        29.98R HX  85
6HR MIN TEMP:  83; 6HR MAX TEMP:  86;

RHINELANDER    SUNNY     83  64  52 W12       29.98F HX  84
6HR MIN TEMP:  83; 6HR MAX TEMP:  89;

EAGLE RIVER    SUNNY     80  61  53 W7        29.97R HX  81
6HR MIN TEMP:  80; 6HR MAX TEMP:  86;

LAND O LAKES   CLOUDY    80  63  56 NW18G32   30.00R HX  81
6HR MIN TEMP:  80; 6HR MAX TEMP:  87;

PHILLIPS       MOSUNNY   82  67  61 SW7       29.97S HX  84
6HR MIN TEMP:  83; 6HR MAX TEMP:  86;

TOMAHAWK       SUNNY     82  63  51 W7        29.98F HX  83
6HR MIN TEMP:  81; 6HR MAX TEMP:  87;

MEDFORD        SUNNY     81  67  62 SW8       29.99F HX  83
6HR MIN TEMP:  81; 6HR MAX TEMP:  83;

MERRILL        SUNNY     83  66  55 W10       29.98F HX  86
6HR MIN TEMP:  82; 6HR MAX TEMP:  88;

$$

WIZ029-030-035-036-043>047-270100-
CENTRAL WISCONSIN

CITY           SKY/WX    TMP DP  RH WIND       PRES   REMARKS
WAUSAU         SUNNY     83  65  54 W8        29.97F HX  85
6HR MIN TEMP:  83; 6HR MAX TEMP:  87;

MOSINEE        SUNNY     82  64  54 SW7       30.00  HX  84
MARSHFIELD     SUNNY     83  65  54 SW8       29.99F HX  85
6HR MIN TEMP:  83; 6HR MAX TEMP:  87;

STEVENS POINT  SUNNY     83  65  54 W9        29.99F HX  85
6HR MIN TEMP:  82; 6HR MAX TEMP:  86;

WAUPACA        SUNNY     87  66  50 SW6       29.98S HX  89
6HR MIN TEMP:  87; 6HR MAX TEMP:  91;

WAUTOMA        SUNNY     85  68  56 SW8       29.99S HX  88
6HR MIN TEMP:  83; 6HR MAX TEMP:  88;

WISC RAPIDS    SUNNY     86  64  47 W6        30.00S HX  87
6HR MIN TEMP:  84; 6HR MAX TEMP:  89;

CAMP DOUGLAS   MOSUNNY   82  68  61 W8        30.00S HX  85
$$

WIZ011>013-019>022-031-037>040-048>050-270100-
NORTHEAST WISCONSIN

CITY           SKY/WX    TMP DP  RH WIND       PRES   REMARKS
ANTIGO         SUNNY     81  65  58 W7        29.99F HX  82
6HR MIN TEMP:  79; 6HR MAX TEMP:  85;

SHAWANO        MOSUNNY   86  64  47 W7        29.96S HX  88
6HR MIN TEMP:  86; 6HR MAX TEMP:  89;

OCONTO         SUNNY     84  70  62 SW7       29.93F HX  88
6HR MIN TEMP:  84; 6HR MAX TEMP:  87;

STURGEON BAY   SUNNY     84  68  58 SW8       29.96R HX  87
6HR MIN TEMP:  84; 6HR MAX TEMP:  87;

GREEN BAY      SUNNY     83  69  62 SW6       29.96S HX  86
6HR MIN TEMP:  83; 6HR MAX TEMP:  86;

MANITOWOC      SUNNY     81  62  52 S8        29.97F HX  82
6HR MIN TEMP:  81; 6HR MAX TEMP:  86;

APPLETON       SUNNY     82  63  51 SW8       29.96F HX  83
CLINTONVILLE   SUNNY     86  64  48 SW6       29.97S HX  87
OSHKOSH        SUNNY     83  66  56 SW6       29.97F HX  85
6HR MIN TEMP:  83; 6HR MAX TEMP:  86;

$$

WIZ032>034-041-042-053>061-270100-
SOUTHWEST WISCONSIN

CITY           SKY/WX    TMP DP  RH WIND       PRES   REMARKS
LA CROSSE      SUNNY     87  67  51 SW8       29.99S HX  90
6HR MIN TEMP:  86; 6HR MAX TEMP:  90;

SPARTA         SUNNY     84  67  57 SW5       30.01S HX  87
6HR MIN TEMP:  83; 6HR MAX TEMP:  87;

VIROQUA        SUNNY     81  67  62 SW3       30.03F HX  84
6HR MIN TEMP:  82; 6HR MAX TEMP:  85;

BOSCOBEL       SUNNY     86  67  52 W5        30.01S HX  89
6HR MIN TEMP:  84; 6HR MAX TEMP:  89;

PRAIRIE DU CHI SUNNY     83  63  50 CALM      30.01S HX  84
6HR MIN TEMP:  83; 6HR MAX TEMP:  85;

PLATTEVILLE    SUNNY     82  68  62 W3        30.04S HX  85
6HR MIN TEMP:  80; 6HR MAX TEMP:  84;

$$

WIZ056-057-062-063-064-067-068-270100-
SOUTH CENTRAL WISCONSIN

CITY           SKY/WX    TMP DP  RH WIND       PRES   REMARKS
REEDSBURG      SUNNY     83  67  59 SW6       30.00S HX  86
6HR MIN TEMP:  80; 6HR MAX TEMP:  85;

BARABOO/DELLS  SUNNY     83  65  54 SW5       30.01F HX  84
6HR MIN TEMP:  81; 6HR MAX TEMP:  85;

LONE ROCK      SUNNY     84  67  56 SW3       30.01S HX  86
6HR MIN TEMP:  84; 6HR MAX TEMP:  87;

MINERAL POINT  SUNNY     82  63  51 CALM      30.04S HX  83
MADISON        MOSUNNY   85  65  51 CALM      30.01S HX  86
6HR MIN TEMP:  83; 6HR MAX TEMP:  87;

MIDDLETON      SUNNY     85  64  49 CALM      30.03R HX  86
6HR MIN TEMP:  82; 6HR MAX TEMP:  86;

WATERTOWN      SUNNY     83  65  55 W3        30.01S HX  84
6HR MIN TEMP:  82; 6HR MAX TEMP:  85;

MONROE         SUNNY     82  63  51 CALM      30.04R HX  83
JANESVILLE     SUNNY     84  61  45 NW6       30.01S HX  84
$$

WIZ051-052-058>065-066-070>072-270100-
SOUTHEAST WISCONSIN

CITY           SKY/WX    TMP DP  RH WIND       PRES   REMARKS
MILWAUKEE      MOSUNNY   82  59  45 SE8       30.01R HX  82
6HR MIN TEMP:  82; 6HR MAX TEMP:  86;

WAUKESHA       SUNNY     81  63  54 NW8       30.03R HX  82
MILWAUKEE/TIMM SUNNY     84  52  32 E5        30.01S HX  82
RACINE         SUNNY     81  58  45 SE7       30.03R HX  81
6HR MIN TEMP:  81; 6HR MAX TEMP:  84;

BURLINGTON     SUNNY     83  64  51 W3        30.01S HX  84
6HR MIN TEMP:  82; 6HR MAX TEMP:  86;

KENOSHA        SUNNY     82  63  52 SE7       30.02R HX  83
6HR MIN TEMP:  82; 6HR MAX TEMP:  86;

FOND DU LAC    SUNNY     84  65  52 SW6       29.99F HX  86
6HR MIN TEMP:  84; 6HR MAX TEMP:  88;

SHEBOYGAN      SUNNY     83  65  54 SW8       29.98F HX  85
6HR MIN TEMP:  83; 6HR MAX TEMP:  87;

WEST BEND      SUNNY     82  61  47 NW5       30.01S HX  83
JUNEAU         SUNNY     82  66  58 W3        30.02S HX  84
6HR MIN TEMP:  81; 6HR MAX TEMP:  83;

$$

LSZ147-162-270100-
LAKE SUPERIOR

STATION/POSITION TIME  TEMP    WIND        PRES    WAVE
                       AIR SEA DIR/SP/G            HT/PER
                 (UTC) (F)     (DEG/KT/KT) (MB)    (FT/S)
W MID LAKE BUOY  2350   70 66  290/  6/  8 1012.1F   0
DEVILS ISLAND    0000   71     230/ 12/ 13 1012.7F
SAXON HARBOR     2300   80      CALM  /  2 1013.5S
$$

LMZ867-665-643>646-270100-
LAKE MICHIGAN

STATION/POSITION TIME  TEMP    WIND        PRES    WAVE
                       AIR SEA DIR/SP/G            HT/PER
                 (UTC) (F)     (DEG/KT/KT) (MB)    (FT/S)
CHAMBERS ISLAND  2300   82     190/  6/ 17 1013.2S
S GREEN BAY BUOY 0000   80 76  210/ 10/ 12   N/A
N MID LAKC1F1C2F2C3F3C4F4C5F5C6F6C7F7C8M1C9M2Ca!



USA.gov is the U.S. government's official web portal to all federal, state and local government web resources and services.